Weather in Teberda

Russia / Karachay-Cherkess Republic     43°26′37″N   41°44′29″E
temp.,
°C
wind,
m/s
gust,
m/s
humid.,
%
clouds,
%
prec.,
mm/h
press.,
hPa
HPBL,
m
13 may, thu
thu1300:00+1ssw55585 0.0 101762
03:00+1s55571 0.0 101756
06:00+4s45590 0.0 101658
09:00+13s26392 0.0 10131854
12:00+15s37332 0.0 10142628
15:00+15ssw36271 0.0 10142408
18:00+12sw115236 0.0 101527
21:00+6s4343100 0.0 101938
14 may, fri
fri1400:00+6ssw543495 0.0 101942
03:00+6ssw43400 0.0 101937
06:00+7ssw33470 0.0 101833
09:00+16ne12301 0.0 10151780
12:00+19nne142965 0.0 10142993
15:00+17n223691 0.0 10132016
18:00+13ese116673 0.3 101633
21:00+7sse348493 0.6 102050
15 may, sat
sat1500:00+6ssw447159 0.0 101951
03:00+6ssw446467 0.0 101943
06:00+8ssw32490 0.0 101831
09:00+15ne22340 0.0 10161174
12:00+17nne44355 0.0 10152458
15:00+13nne446961 2.3 1016504
18:00+8ese1192100 8.1 1018164
21:00+7ssw228616 8.3 101819
16 may, sun
sun1600:00+6ssw448218 0.0 101641
03:00+6ssw437978 0.0 101639
06:00+7ssw337072 0.0 101438
09:00+15nne113699 0.0 1010984
12:00+18nne253495 0.0 10082361
15:00+17nne334783 0.5 10081514
18:00+13ene127564 2.7 1009134
21:00+8s4379100 3.0 101138
17 may, mon
mon1700:00+8ssw447921 0.0 101149
03:00+7ssw55730 0.0 101155
06:00+9ssw44660 0.0 101055
09:00+17sse123214 0.0 10082300
12:00+18ne2532100 0.0 10073287
15:00+16wsw034879 1.3 10081232
18:00+9ne118545 1.4 1013327
21:00+7ssw328091 1.6 101324